[[{"header":{"parameterUnit":"m.s-1","parameterCategory":1,"la1":30.2991,"la2":30.254,"lo1":-89.0895,"lo2":-89.0444,"dy":0.0017,"dx":0.0017,"nx":28,"ny":28,"refTime":"2023-07-31T09:00:00:Z","depth":0,"parameterNumber":2,"parameterNumberName":"U-component_of_WINDS"},"data":[0,0,0,0,0,0,0,0,0,0,0,0,0,0,0,0,0,0,0,0,0,0,0,0,0,0,0,0,0,0,0,0,0,0,0,0,0,0,0,0,0,0,0,0,0,0,0,0,0,0,0,0,0,0,0,0,0,0,-0.8606,-0.8603,0,-0.8382,-0.838,-0.8377,-0.8274,-0.8274,-0.8274,-0.8274,-0.8039,-0.8033,-0.8026,0,0,0,0,0,0,0,0,0,0,0,0,0,-0.8938,-0.8932,-0.8606,-0.8603,-0.86,-0.8383,-0.838,-0.8377,-0.8274,-0.8274,-0.8274,-0.8274,-0.8041,-0.8033,-0.8026,0,0,0,0,0,0,0,0,0,0,0,0,0,-0.8762,-0.893,-0.8606,-0.8523,-0.8513,-0.8384,-0.838,-0.8376,-0.8274,-0.8274,-0.8274,-0.8274,-0.8043,-0.8034,-0.8024,-0.7959,0,0,-0.7995,-0.7991,0,0,0,0,0,0,0,0,-0.8772,-0.875,-0.8538,-0.8528,-0.8517,-0.8356,-0.841,-0.8236,-0.8273,-0.8364,-0.8274,-0.8275,-0.8144,-0.8126,-0.8083,-0.7948,-0.7938,-0.7994,-0.7988,-0.7984,-0.7981,0,0,0,0,0,0,0,-0.8784,-0.8759,-0.8517,-0.8535,-0.8522,-0.8495,-0.847,-0.8377,-0.8255,-0.8356,-0.8348,-0.8324,-0.8138,-0.8093,-0.8077,-0.7935,-0.7994,-0.7986,-0.798,-0.7976,-0.7735,-0.7735,0,0,0,0,0,0,-0.8811,-0.877,-0.8524,-0.8511,-0.8648,-0.8489,-0.8461,-0.8408,-0.8256,-0.8233,-0.8324,-0.832,-0.8109,-0.8088,-0.8068,-0.7982,-0.7984,-0.7975,-0.797,-0.7736,-0.7735,-0.7735,0,0,0,0,0,0,-0.8819,-0.879,-0.8533,-0.8638,-0.8603,-0.8483,-0.8423,-0.8403,-0.8358,-0.8231,-0.8208,-0.83,-0.8108,-0.8082,-0.7988,-0.7972,-0.7971,-0.7962,-0.7737,-0.7736,-0.7735,-0.7809,0,0,0,0,0,0,-0.8828,-0.8793,-0.8768,-0.8638,-0.8598,-0.8458,-0.8422,-0.8398,-0.8342,-0.8335,-0.8203,-0.8181,-0.8107,-0.8003,-0.7978,-0.7959,-0.7954,-0.7737,-0.7736,-0.7735,-0.7808,-0.7811,-0.7814,0,0,0,0,0,-0.8841,-0.8797,-0.8768,-0.8739,-0.8565,-0.8458,-0.8434,-0.8352,-0.8341,-0.8314,-0.8233,-0.8185,-0.7979,-0.7994,-0.7965,-0.7943,-0.7738,-0.7737,-0.7735,-0.7806,-0.781,-0.7814,0,0,0,0,0,0,-0.8925,-0.8778,-0.8744,-0.8657,-0.8571,-0.8441,-0.8404,-0.8358,-0.8272,-0.8268,-0.8167,-0.8138,-0.8053,-0.7988,-0.8008,-0.7872,-0.7854,-0.7847,-0.7917,-0.792,-0.7924,-0.794,-0.7946,0,0,0,0,0,-0.8935,-0.8862,-0.8736,-0.8671,-0.863,-0.8525,-0.8475,-0.8419,-0.8325,-0.8287,-0.8199,-0.8108,-0.8022,-0.7968,-0.7882,-0.7798,-0.7768,-0.7769,-0.7772,-0.7775,-0.777,-0.7721,-0.772,-0.773,-0.773,-0.773,0,0,-0.8951,-0.8862,-0.8821,-0.8686,-0.8613,-0.8539,-0.8495,-0.8417,-0.8361,-0.8275,-0.8181,-0.8114,-0.8005,-0.7917,-0.7873,-0.786,-0.7761,-0.7774,-0.7777,-0.777,-0.772,-0.7719,-0.7718,-0.7729,-0.7729,-0.773,0,0,-0.8944,-0.887,-0.8808,-0.8736,-0.8627,-0.8557,-0.8543,-0.8419,-0.8372,-0.8278,-0.8212,-0.8142,-0.7997,-0.7922,-0.7865,-0.7833,-0.7785,-0.7808,-0.7824,-0.7777,-0.7777,-0.7775,-0.7763,-0.776,-0.7803,-0.7803,-0.7803,0,-0.8978,-0.8865,-0.8781,-0.8708,-0.865,-0.8572,-0.8508,-0.8442,-0.8309,-0.8271,-0.8259,-0.8076,-0.7997,-0.789,-0.7883,-0.784,-0.7819,-0.7821,-0.7784,-0.7782,-0.7779,-0.7767,-0.7763,-0.7807,-0.7806,-0.7806,-0.7806,0,-0.8912,-0.8835,-0.8798,-0.8675,-0.8613,-0.8545,-0.845,-0.8397,-0.8347,-0.8279,-0.8183,-0.8087,-0.798,-0.7951,-0.79,-0.7837,-0.7832,-0.7804,-0.7783,-0.7783,-0.777,-0.7764,-0.7812,-0.781,-0.7809,-0.7808,0,0,-0.895,-0.8784,-0.8771,-0.8715,-0.859,-0.8527,-0.8456,-0.8355,-0.8311,-0.8223,-0.816,-0.804,-0.8013,-0.7949,-0.7889,-0.7849,-0.783,-0.7825,-0.7821,-0.7829,-0.7754,-0.7776,-0.7771,-0.7798,-0.7797,-0.7796,-0.7763,0,-0.8925,-0.8795,-0.8718,-0.8619,-0.8547,-0.8472,-0.841,-0.8326,-0.8261,-0.8188,-0.8115,-0.8032,-0.8004,-0.7964,-0.7921,-0.7841,-0.7813,-0.7843,-0.7737,-0.7734,-0.7765,-0.7764,-0.7786,-0.776,-0.7757,-0.7756,-0.7755,0,-0.8877,-0.8794,-0.8689,-0.8573,-0.854,-0.8485,-0.8387,-0.8319,-0.8222,-0.8178,-0.8108,-0.8049,-0.7969,-0.7956,-0.7845,-0.7867,-0.7819,-0.7773,-0.777,-0.7756,-0.7744,-0.7749,-0.7749,-0.7745,-0.7746,-0.7747,-0.7747,0,-0.8915,-0.8776,-0.8695,-0.865,-0.8513,-0.8476,-0.8417,-0.8321,-0.8265,-0.8179,-0.8142,-0.8046,-0.7994,-0.7921,-0.7837,-0.7836,-0.7734,-0.7714,-0.7693,-0.7695,-0.7673,-0.7676,-0.7665,-0.7645,-0.7645,-0.7645,-0.7645,0,-0.8895,-0.8833,-0.8711,-0.8661,-0.859,-0.8502,-0.8433,-0.8368,-0.8283,-0.8218,-0.8148,-0.8088,-0.7982,-0.7909,-0.7843,-0.776,-0.7737,-0.7698,-0.7681,-0.7703,-0.7708,-0.7669,-0.7669,-0.7644,-0.7644,-0.7644,-0.7645,0,-0.8924,-0.884,-0.8747,-0.8626,-0.8594,-0.8547,-0.8443,-0.8391,-0.8324,-0.8243,-0.8218,-0.8111,-0.8022,-0.7932,-0.781,-0.7766,-0.7685,-0.7662,-0.7718,-0.7709,-0.7693,-0.7696,-0.7656,-0.7646,-0.7634,-0.7635,-0.7635,0,-0.8916,-0.8867,-0.8742,-0.8695,-0.8639,-0.8563,-0.8507,-0.8419,-0.8363,-0.825,-0.8212,-0.8118,-0.8038,-0.7898,-0.7808,-0.7715,-0.7689,-0.7682,-0.7674,-0.7699,-0.7688,-0.7692,-0.7686,-0.7684,-0.7685,-0.7686,-0.7686,0,-0.891,-0.8872,-0.8795,-0.8704,-0.8639,-0.8563,-0.8483,-0.8448,-0.8344,-0.8285,-0.8194,-0.8133,-0.801,-0.7917,-0.7815,-0.7751,-0.7701,-0.769,-0.768,-0.7702,-0.7736,-0.7717,-0.7726,-0.769,-0.769,-0.7689,-0.7689,-0.7689,-0.892,-0.8873,-0.8779,-0.8696,-0.8628,-0.8555,-0.8501,-0.8428,-0.8352,-0.8247,-0.8199,-0.8108,-0.8013,-0.787,-0.7808,-0.7734,-0.7721,-0.7706,-0.7703,-0.77,-0.7706,-0.775,-0.7715,-0.7715,-0.7715,-0.7714,-0.7714,0,-0.891,-0.8847,-0.8771,-0.8664,-0.8598,-0.856,-0.847,-0.8418,-0.8339,-0.8256,-0.818,-0.8075,-0.7986,-0.789,-0.7795,-0.7754,-0.7728,-0.7732,-0.7733,-0.7719,-0.7723,-0.7741,-0.7754,-0.7754,-0.7754,-0.7754,-0.7754,-0.7754,-0.8898,-0.8817,-0.8768,-0.8653,-0.8589,-0.8501,-0.8453,-0.8386,-0.8319,-0.8207,-0.8134,-0.8073,-0.7984,-0.7882,-0.7798,-0.7772,-0.7739,-0.7749,-0.7717,-0.7722,-0.7719,-0.7716,-0.7732,-0.7743,-0.7743,-0.7718,-0.7718,-0.7718]},{"header":{"parameterUnit":"m.s-1","parameterCategory":1,"la1":30.2991,"la2":30.254,"lo1":-89.0895,"lo2":-89.0444,"dy":0.0017,"dx":0.0017,"nx":28,"ny":28,"refTime":"2023-07-31T09:00:00:Z","depth":0,"parameterNumber":3,"parameterNumberName":"V-component_of_WINDS"},"data":[0,0,0,0,0,0,0,0,0,0,0,0,0,0,0,0,0,0,0,0,0,0,0,0,0,0,0,0,0,0,0,0,0,0,0,0,0,0,0,0,0,0,0,0,0,0,0,0,0,0,0,0,0,0,0,0,0,0,2.7029,2.7029,0,2.6992,2.6992,2.6991,2.6956,2.6956,2.6955,2.6955,2.6916,2.6916,2.6915,0,0,0,0,0,0,0,0,0,0,0,0,0,2.7067,2.7067,2.7029,2.7029,2.7028,2.6992,2.6992,2.6991,2.6956,2.6956,2.6955,2.6954,2.6917,2.6916,2.6915,0,0,0,0,0,0,0,0,0,0,0,0,0,2.7043,2.7066,2.7029,2.7006,2.7004,2.6992,2.6992,2.6991,2.6956,2.6955,2.6955,2.6954,2.6917,2.6916,2.6915,2.6923,0,0,2.6912,2.6912,0,0,0,0,0,0,0,0,2.7044,2.7041,2.701,2.7008,2.7005,2.6978,2.6991,2.6968,2.6956,2.6974,2.6955,2.6954,2.6937,2.6935,2.6929,2.6921,2.692,2.6912,2.6912,2.6911,2.6911,0,0,0,0,0,0,0,2.7046,2.7043,2.7014,2.701,2.7007,2.6997,2.6993,2.6987,2.696,2.6973,2.697,2.6966,2.6936,2.693,2.6928,2.6919,2.6912,2.6912,2.6911,2.6911,2.6913,2.6914,0,0,0,0,0,0,2.7051,2.7044,2.7016,2.7013,2.7023,2.6997,2.6992,2.6987,2.696,2.6955,2.6967,2.6965,2.6932,2.6929,2.6927,2.6932,2.6911,2.6911,2.691,2.6913,2.6914,2.6914,0,0,0,0,0,0,2.7052,2.7049,2.7017,2.7028,2.7023,2.6997,2.6992,2.6987,2.6981,2.6956,2.6951,2.6966,2.6932,2.6928,2.6924,2.6931,2.691,2.6909,2.6912,2.6913,2.6914,2.6945,0,0,0,0,0,0,2.7053,2.7049,2.7053,2.7028,2.7023,2.7015,2.6992,2.6987,2.698,2.6977,2.6954,2.6949,2.6931,2.6925,2.6923,2.6929,2.6909,2.6911,2.6913,2.6914,2.6943,2.6947,2.695,0,0,0,0,0,2.7055,2.7063,2.7053,2.705,2.7026,2.7016,2.7013,2.6992,2.6981,2.6983,2.6966,2.695,2.6931,2.6925,2.6922,2.6928,2.6911,2.6912,2.6914,2.6942,2.6946,2.695,0,0,0,0,0,0,2.7089,2.706,2.7048,2.7049,2.7035,2.701,2.7013,2.6997,2.6986,2.6984,2.6958,2.6953,2.6951,2.6939,2.6934,2.6933,2.6918,2.6919,2.6941,2.6945,2.6948,2.695,2.6908,0,0,0,0,0,2.7097,2.7091,2.7066,2.7069,2.7063,2.7039,2.7034,2.7019,2.7003,2.6997,2.698,2.6965,2.6956,2.695,2.694,2.6942,2.6935,2.6944,2.6948,2.6951,2.6951,2.6949,2.6953,2.6919,2.6919,2.6919,0,0,2.7113,2.7096,2.7094,2.7075,2.7063,2.7057,2.7034,2.7029,2.7024,2.6996,2.699,2.6978,2.6959,2.6958,2.6956,2.6948,2.6959,2.6953,2.6955,2.6954,2.6951,2.6954,2.6957,2.692,2.6919,2.6919,0,0,2.7138,2.7126,2.7126,2.7114,2.7095,2.7079,2.7079,2.7056,2.7046,2.704,2.7018,2.7012,2.6997,2.6984,2.6975,2.6994,2.6978,2.6992,2.7009,2.7008,2.701,2.7012,2.7017,2.702,2.6993,2.6993,2.6993,0,2.716,2.715,2.7128,2.7123,2.7115,2.709,2.7089,2.7079,2.7058,2.7052,2.7043,2.7022,2.7008,2.7002,2.7007,2.7002,2.7,2.6994,2.7012,2.7014,2.7015,2.702,2.7022,2.6995,2.6995,2.6994,2.6994,0,2.7176,2.717,2.7173,2.7152,2.7145,2.7142,2.7119,2.7114,2.7099,2.7084,2.7077,2.706,2.7045,2.7043,2.7029,2.7034,2.7029,2.7017,2.7001,2.7021,2.7024,2.7026,2.6997,2.6997,2.6996,2.6996,0,0,2.7221,2.7189,2.719,2.718,2.7157,2.7151,2.7147,2.7133,2.7128,2.7114,2.7109,2.7096,2.7083,2.7074,2.7058,2.7057,2.7071,2.7044,2.7043,2.7048,2.7073,2.7082,2.7084,2.706,2.7061,2.7061,2.7074,0,2.7241,2.7233,2.7212,2.721,2.7202,2.7178,2.7174,2.7159,2.7145,2.7136,2.712,2.711,2.7096,2.7089,2.7087,2.707,2.7075,2.7069,2.7054,2.7054,2.7058,2.7087,2.7096,2.7109,2.7076,2.7076,2.7076,0,2.7263,2.725,2.7247,2.7223,2.7219,2.7216,2.72,2.7193,2.7175,2.7164,2.7153,2.7136,2.7129,2.7115,2.7105,2.71,2.7093,2.7084,2.7084,2.708,2.7065,2.7082,2.7113,2.7115,2.7079,2.7078,2.7078,0,2.7293,2.7276,2.7271,2.7263,2.7236,2.7234,2.7223,2.7204,2.7196,2.7182,2.7176,2.7162,2.7154,2.7143,2.7121,2.7114,2.7112,2.7097,2.7102,2.7102,2.7101,2.7102,2.713,2.71,2.71,2.71,2.71,0,2.7316,2.7315,2.7284,2.7281,2.7278,2.7255,2.7252,2.7238,2.7222,2.7215,2.7193,2.7187,2.716,2.715,2.7134,2.7126,2.7123,2.7113,2.7108,2.7114,2.7115,2.7108,2.7106,2.71,2.71,2.71,2.71,0,2.7349,2.7329,2.7322,2.7296,2.729,2.7289,2.7267,2.7262,2.7246,2.7238,2.7234,2.7209,2.7196,2.7174,2.7155,2.7144,2.7139,2.7132,2.7145,2.7142,2.7147,2.7146,2.7171,2.7172,2.7143,2.7143,2.7144,0,2.7364,2.7362,2.7337,2.7331,2.732,2.731,2.7302,2.7279,2.7271,2.725,2.7248,2.7233,2.722,2.7201,2.718,2.7165,2.7157,2.7167,2.7154,2.716,2.7155,2.7155,2.7153,2.7169,2.7169,2.717,2.717,0,2.7392,2.7382,2.7371,2.7356,2.7347,2.7334,2.732,2.7316,2.729,2.7282,2.7268,2.7259,2.7239,2.7224,2.7206,2.7193,2.7177,2.7174,2.7174,2.7179,2.7186,2.718,2.7151,2.7173,2.7173,2.7173,2.7173,2.7172,2.7415,2.7412,2.7393,2.7381,2.7368,2.7355,2.735,2.7333,2.7322,2.7304,2.7291,2.7279,2.7259,2.7233,2.7221,2.721,2.7203,2.7203,2.7203,2.7203,2.7205,2.7189,2.7207,2.7207,2.7207,2.7207,2.7207,0,2.744,2.7427,2.7417,2.7398,2.7388,2.7374,2.7358,2.735,2.734,2.7324,2.7311,2.7295,2.7281,2.7259,2.7243,2.7238,2.723,2.7234,2.7234,2.7231,2.7213,2.7214,2.7241,2.7241,2.7241,2.7241,2.7241,2.7241,2.7452,2.7445,2.7433,2.7419,2.7405,2.7393,2.7385,2.7372,2.7359,2.7343,2.7331,2.7317,2.7298,2.728,2.7266,2.7259,2.7254,2.726,2.7252,2.7235,2.7232,2.7229,2.723,2.726,2.726,2.727,2.727,2.727]}]]